Home   Weather   Northampton   Past weeks

Flag for United Kingdom Past Weather in Northampton, England, United Kingdom — Yesterday and Last 2 Weeks

Now
48 °F

Passing clouds.


Feels Like: 46 °F
Forecast: 54 / 67 °F
Wind: 6 mph from South

Location: Wittering

Current Time: Sep 26, 2016 at 6:30:51 AM

Latest Report: Sep 26, 2016 at 5:50 AM


Visibility: N/A

Pressure: 30.12 "Hg

Humidity: 94%

Dew Point: 46 °F

Location of NorthamptonLocation

Past Weather in Northampton — Graph

°F

Northampton Temperature Yesterday

Maximum temperature yesterday: 64 °F (at 1:50 PM)
Minimum temperature yesterday: 50 °F (at 11:50 PM)
Average temperature yesterday: 58 °F

High & Low Weather Summary for the Past Weeks

 TemperatureHumidityPressure
High86 °F (Sep 13, 2:50 PM)100% (Sep 11, 6:50 AM)30.24 "Hg (Sep 11, 6:50 AM)
Low45 °F (Sep 23, 4:50 AM)40% (Sep 13, 3:50 PM)29.74 "Hg (Sep 25, 3:50 AM)
Average60 °F83%30.00 "Hg
* Reported Sep 11 4:50 AM — Sep 26 4:50 AM, Northampton, Weather by CustomWeather, © 2016

Note: Actual official high and low records may vary slightly from our data, if they occured in-between our weather recording intervals... More about our weather records

Advertising

Northampton Weather History for the Previous 24 Hours

Scroll right to see more
 ConditionsComfort  
Time TempWeatherWind HumidityBarometerVisibility
4:50 AM
Mon, Sep 26
46 °FPassing clouds.6 mph93%30.12 "HgN/A
3:50 AM46 °FPassing clouds.6 mph93%30.12 "HgN/A
2:50 AM48 °FPassing clouds.7 mph87%30.12 "HgN/A
1:50 AM48 °FCool.9 mph94%30.12 "HgN/A
12:50 AM50 °FCool.9 mph88%30.12 "HgN/A
11:50 PM
Sun, Sep 25
50 °FCool.9 mph88%30.09 "HgN/A
10:50 PM52 °FCool.9 mph82%30.09 "HgN/A
9:50 PM52 °FCool.8 mph77%30.07 "HgN/A
8:50 PM52 °FCool.7 mph77%30.07 "HgN/A
7:50 PM54 °FCool.6 mph72%30.04 "HgN/A
6:50 PM57 °FCool.10 mph67%30.04 "HgN/A
5:50 PM61 °FRefreshingly cool.13 mph59%30.01 "HgN/A
4:50 PM61 °FScattered clouds.15 mph59%29.98 "HgN/A
3:50 PM63 °FPassing clouds.18 mph56%29.95 "HgN/A
2:50 PM64 °FMild.20 mph56%29.92 "HgN/A
1:50 PM64 °FScattered clouds.21 mph56%29.92 "HgN/A
12:50 PM63 °FPartly sunny.17 mph64%29.89 "HgN/A
10:50 AM61 °FScattered clouds.17 mph83%29.86 "HgN/A
9:50 AM59 °FBroken clouds.10 mph88%29.83 "HgN/A
8:50 AM57 °FPartly sunny.12 mph94%29.83 "HgN/A
7:50 AM57 °FPartly sunny.12 mph94%29.80 "HgN/A
6:50 AM57 °FRain showers. Partly sunny.5 mph94%29.77 "HgN/A
Weather by CustomWeather, © 2016

See weather overviewHow to use our weather pages